SCP
0 0 0 0 0 0 0 0 0 -0 -0 -0 0 -0 -0 -0 -0 -0 -0 -0 -0 -0 -0 0 0 0 0 0 0 0 0 0 0 0 0 0 0 0 1 0 0 0 0 0
0 0 0 0 0 0 0 0 0 0 -0 -0 0 0 0 -0 -0 -0 0 0 -0 0 0 -0 -0 -0 0 -0 -0 0 0 0 0 0 0 0 0 0 0 0 0 1 0 0
0 0 0 0 0 0 0 0 0 0 -0 0 0 -0 -0 -0 0 -0 0 0 0 0 0 -0 -0 -0 -0 -0 -0 0 0 0 0 0 0 0 0 0 0 0 0 0 1 0
0 0 0 0 0 0 0 0 0 0 0 -0 -0 0 -0 -0 -0 0 0 0 0 0 0 0 -0 -0 0 0 0 0 0 0 0 0 0 0 0 0 0 0 0 0 0 0
0 0 0 0 0 0 0 0 0 0 0 0 0 0 0 0 0 0 0 0 0 0 0 0 0 0 0 0 0 0 0 0 0 0 0 0 0 0 0 0 0 0 0 0
0 0 0 0 0 0 0 0 0 0 0 0 0 0 0 -0 0 0 0 0 0 0 0 0 0 0 0 0 0 0 0 0 0 0 0 0 0 0 0 0 0 0 0 0
0 0 0 0 0 -0 0 0 0 0 0 0 0 0 0 0 0 0 0 0 0 0 0 0 0 0 0 0 0 0 0 0 0 0 0 0 0 0 0 0 0 0 0 0
0 0 0 0 0 0 0 0 0 0 0 0 0 0 0 0 0 0 -0 -0 0 0 0 0 0 0 0 0 0 0 0 0 0 0 0 0 0 0 0 0 0 0 0 0
0 0 0 0 0 0 0 0 0 0 0 0 0 0 0 0 0 0 -0 -0 0 0 0 0 0 0 0 0 0 0 0 0 1 0 0 0 0 0 0 0 0 0 0 0
0 0 0 0 0 0 0 -0 0 0 0 0 0 0 0 0 0 0 0 0 0 0 0 0 0 0 0 0 0 0 0 0 0 0 0 0 0 0 0 0 0 0 0 0
0 0 0 0 0 0 0 -0 -0 0 0 0 0 0 0 0 0 0 -0 0 0 0 0 0 0 0 0 0 0 0 0 0 0 0 0 0 0 0 0 0 0 0 0 0
0 0 0 0 0 0 0 0 -0 0 0 0 0 0 0 0 0 0 0 0 0 0 0 0 0 0 0 0 0 0 0 0 0 0 0 0 0 0 0 0 0 0 0 0
0 0 0 0 0 0 0 0 0 0 0 0 0 0 0 1 0 0 0 0 0 0 0 0 0 0 0 0 0 0 0 0 0 0 0 0 0 0 0 0 0 0 0 0
0 -0 0 0 0 0 0 0 0 0 0 0 0 0 0 0 0 0 0 0 0 0 0 0 0 0 0 0 0 0 0 0 0 0 0 0 0 0 0 0 0 0 0 0
0 0 -0 0 0 0 0 0 0 0 0 0 0 0 0 0 0 0 0 0 0 0 0 0 0 0 0 0 0 0 0 0 0 0 0 0 0 0 0 0 0 0 0 0
0 0 0 -0 0 0 0 0 0 0 0 0 0 0 0 -0 0 0 0 0 0 0 0 0 0 0 0 0 0 0 0 0 0 0 0 0 0 0 0 0 0 0 0 0
0 0 0 0 0 0 0 0 0 0 0 0 0 0 0 0 0 0 0 0 0 0 0 0 0 0 0 0 0 0 0 0 0 0 0 0 0 0 0 0 0 0 0 0
0 0 0 0 0 0 0 0 0 0 0 0 0 0 0 0 0 0 0 0 0 0 0 0 0 0 0 0 0 0 0 0 0 0 0 0 0 0 0 0 0 0 0 0
0 -0 0 0 0 0 0 0 0 0 0 0 0 0 0 0 0 0 0 0 0 0 0 0 0 0 0 0 0 0 0 0 0 0 0 0 0 0 0 0 0 0 0 0
0 0 0 0 0 0 0 0 0 0 0 0 0 0 0 0 0 0 0 1 1 0 0 0 0 0 0 0 0 0 0 0 0 0 0 0 0 0 0 0 0 0 0 0
0 0 0 0 0 0 0 0 0 0 0 0 0 0 0 0 0 0 1 0 0 0 0 0 0 0 0 0 0 0 0 0 0 0 0 0 0 0 0 0 0 0 0 0
0 0 0 0 0 0 0 0 0 0 0 0 0 0 0 0 0 0 1 1 0 0 0 0 0 0 0 0 0 0 0 0 -0 0 0 0 0 0 0 0 0 0 0 0
0 0 0 0 0 0 0 0 0 0 0 0 0 0 0 0 0 0 0 0 0 0 0 0 0 0 0 0 0 0 0 0 -0 0 0 0 0 0 0 0 0 0 0 0
-0 0 0 0 0 0 0 0 0 0 0 0 0 0 0 0 0 0 0 0 0 0 0 0 0 0 0 0 0 0 0 0 0 0 0 0 0 0 0 0 0 0 0 0
-0 0 0 0 0 0 0 0 0 0 0 0 0 0 0 0 0 0 0 0 0 0 0 0 0 0 0 0 0 0 0 0 0 0 0 0 0 0 0 0 0 0 0 0
0 0 0 0 0 0 0 0 0 0 -0 0 0 0 0 0 0 0 0 0 0 0 0 0 0 0 0 0 0 0 0 0 0 0 0 0 0 0 0 0 0 0 0 0
-0 -0 -0 -0 0 -0 -0 -0 -0 0 0 0 0 0 0 0 0 0 0 0 0 0 0 0 0 0 0 0 0 0 0 0 0 0 0 0 0 0 0 0 0 0 0 -0
Wind_Speed_500mb
29 22 17 23 21 29 25 22 18 23 20 30 16 22 27 26 26 28 27 26 25 24 24 26 32 39 43 39 41 34 21 25 24 17 14 28 37 34 34 32 38 40 44 46
12 7 21 26 23 30 27 14 8 10 16 14 7 14 25 26 30 27 27 26 25 24 21 20 21 21 22 27 38 48 36 32 29 30 30 30 25 27 28 32 43 46 42 45
14 2 9 9 31 33 25 23 23 17 22 14 14 23 35 35 34 34 32 30 28 23 19 20 20 19 19 21 24 27 29 35 35 31 31 30 33 34 38 31 27 32 41 45
8 6 32 2 9 31 39 30 27 11 16 21 19 26 31 44 45 38 37 34 31 30 28 23 19 19 18 16 14 13 12 14 18 19 21 23 24 25 26 33 37 44 43 46
13 15 11 9 7 11 23 25 31 27 11 10 9 18 16 36 41 40 37 33 33 36 32 26 20 20 18 14 11 9 8 9 11 10 10 12 13 14 15 20 28 31 33 41
9 27 31 14 8 7 4 20 23 34 16 19 29 18 19 56 48 37 32 36 38 38 31 26 28 21 13 10 5 4 8 11 7 3 8 14 17 19 23 27 25 29 33 33
23 24 32 10 16 15 9 9 30 28 31 35 22 15 25 57 52 46 41 37 40 39 31 26 21 15 8 5 7 16 13 8 6 3 6 12 13 17 21 25 27 28 29 29
26 32 31 7 10 41 11 19 20 18 22 47 38 19 22 54 60 56 51 44 42 40 32 24 17 9 8 5 11 15 21 19 18 17 14 13 15 19 25 25 25 29 29 30
10 19 9 10 4 8 9 15 21 30 19 27 35 28 29 45 58 59 54 47 46 40 33 25 14 11 13 13 18 21 22 24 25 25 22 23 26 30 33 28 25 21 23 26
16 4 11 9 2 7 13 23 34 32 30 28 34 34 38 46 57 57 55 51 48 43 32 22 15 12 15 17 21 24 24 25 27 25 26 29 35 40 37 27 21 25 24 28
15 7 4 8 30 27 5 25 26 29 30 29 36 38 44 52 57 58 57 54 51 39 33 24 14 12 13 14 17 19 21 21 21 24 29 36 36 30 24 26 26 24 28 31
6 25 13 11 27 18 34 36 34 30 22 20 35 43 46 54 59 60 61 57 47 40 32 19 9 9 10 10 11 14 18 22 26 31 33 30 28 29 20 23 29 29 34 39
23 16 28 32 30 9 31 36 38 34 26 20 30 44 57 60 61 62 57 48 47 40 27 16 11 10 7 7 10 14 21 27 31 32 30 29 27 26 26 30 34 38 37 35
26 29 34 29 25 43 47 48 38 30 17 20 34 47 60 62 63 58 54 52 45 36 27 19 14 8 4 6 11 16 21 26 30 32 32 28 19 26 26 27 31 35 32 39
52 46 40 48 63 61 56 54 39 31 17 14 29 47 64 62 60 59 57 51 45 39 31 21 12 6 4 9 13 16 20 23 25 26 21 17 20 24 26 27 29 34 37 31
43 42 42 40 45 52 51 40 28 28 21 10 27 43 63 64 60 67 62 56 52 45 32 20 11 4 5 11 14 16 20 22 22 19 18 20 18 19 22 25 31 25 15 11
48 54 42 37 38 42 38 33 27 24 21 13 26 37 58 66 70 71 65 58 48 34 25 17 12 7 8 14 18 21 23 24 26 29 24 22 18 20 21 27 18 13 9 6
52 64 56 42 26 26 32 27 23 22 18 11 20 36 45 67 73 69 67 59 50 40 29 22 16 12 12 18 24 29 32 32 30 29 29 29 23 20 22 20 12 7 5 6
32 48 52 40 35 28 30 29 26 19 15 11 15 32 46 58 66 71 67 60 53 42 32 23 18 14 15 21 28 31 34 35 35 36 34 29 24 22 21 16 11 16 15 17
33 34 41 41 39 30 33 30 28 24 16 11 16 23 36 52 66 66 66 66 52 39 29 24 19 17 17 23 27 32 36 39 40 39 35 28 23 24 24 17 27 25 23 28
32 33 38 40 36 31 33 28 28 27 19 17 12 20 28 38 48 51 61 57 44 35 30 23 20 16 18 23 30 37 41 37 34 28 26 26 26 27 22 26 37 29 25 27
16 27 35 35 33 28 22 22 25 24 23 22 19 22 28 31 34 46 57 50 37 32 27 26 21 17 19 26 33 37 33 23 16 19 22 22 25 27 23 35 42 26 27 30
20 27 29 28 21 15 12 20 23 25 27 29 27 28 27 32 42 60 54 44 32 28 23 25 19 18 21 27 32 31 25 19 19 19 24 19 21 22 24 43 43 36 32 37
26 20 17 15 11 3 8 23 20 15 14 17 22 32 31 38 48 47 42 29 15 21 25 22 19 19 19 22 26 26 24 21 15 12 16 13 17 22 26 43 47 45 48 38
17 16 10 9 12 17 21 16 24 28 29 30 25 26 27 28 26 25 24 25 27 28 31 28 24 18 13 13 14 18 16 14 15 13 16 18 16 25 29 52 54 53 47 44
31 35 29 27 22 26 21 24 23 28 26 28 24 11 10 18 20 15 14 17 24 28 30 28 25 15 8 3 7 11 5 7 12 12 13 16 14 21 43 52 52 55 50 49
36 32 30 30 27 24 23 23 23 23 25 24 22 20 14 11 12 16 17 20 23 26 29 28 27 23 18 22 27 30 35 36 32 26 28 28 24 28 30 39 44 37 47 44
Wind_Direction_500mb
243 252 217 246 197 183 209 205 211 241 218 252 203 185 188 163 146 149 155 166 168 172 177 187 199 213 218 221 215 202 201 204 201 210 235 246 249 246 246 253 258 256 253 250
266 321 234 242 238 200 210 197 221 198 230 238 160 157 163 166 156 155 163 168 169 169 173 184 198 200 201 207 209 215 225 221 229 247 257 259 250 239 248 270 261 251 251 253
248 335 156 241 229 204 195 197 193 186 217 163 182 193 178 171 174 171 168 165 166 160 151 152 152 158 165 172 184 202 221 227 238 255 251 260 263 265 259 255 257 253 253 252
206 191 235 126 301 223 205 195 195 236 221 209 218 195 185 183 181 176 172 170 162 153 146 147 154 161 161 159 167 187 209 227 237 244 253 259 262 269 260 260 259 268 267 257
221 228 280 234 143 174 198 220 206 219 213 207 165 154 198 192 188 182 180 175 165 161 160 142 142 148 147 141 142 153 183 220 233 246 260 273 280 272 274 266 276 266 260 263
219 229 234 206 124 25 347 244 205 211 202 170 161 176 201 194 190 184 175 174 174 172 169 151 143 136 133 129 126 207 202 206 197 270 294 292 284 285 281 272 267 260 269 275
224 243 240 253 121 89 198 248 318 217 204 173 193 207 197 189 185 185 183 183 181 180 171 159 154 148 151 157 135 170 190 208 217 280 303 311 293 300 297 284 273 270 271 271
211 219 236 143 142 187 213 313 320 299 233 201 197 209 164 183 183 183 187 183 183 181 173 167 170 181 227 243 211 215 211 220 239 252 265 285 292 299 311 303 284 271 270 271
283 216 0 320 133 112 4 328 329 308 298 235 192 190 170 176 181 185 186 183 183 179 174 179 191 232 253 259 249 247 245 246 253 249 261 274 285 295 299 295 292 283 284 290
312 79 54 69 56 22 347 323 308 307 286 237 206 189 175 175 179 181 183 184 179 174 178 186 213 244 261 256 252 255 257 254 253 256 269 280 289 293 284 274 277 272 274 274
289 4 168 355 23 13 332 344 330 297 276 251 209 201 181 178 179 178 176 176 177 176 178 192 214 255 272 266 254 252 251 251 252 263 278 289 295 303 286 274 266 274 276 279
264 338 313 320 349 360 19 350 347 323 287 244 213 207 186 177 173 171 168 171 175 181 185 192 231 264 266 258 247 242 245 252 261 272 282 288 292 297 295 274 276 273 275 281
252 276 295 292 318 299 337 335 335 333 297 243 204 200 183 172 169 167 168 176 183 186 188 204 218 229 238 262 268 260 259 266 272 275 280 286 288 291 291 282 277 282 289 288
255 269 277 276 287 300 315 326 325 329 310 217 203 191 179 172 165 170 180 186 184 187 196 205 210 218 255 290 294 289 283 280 278 278 280 284 282 286 290 291 291 293 292 292
269 253 249 280 287 291 298 306 323 342 343 204 206 194 183 178 176 185 190 187 187 193 198 200 207 233 315 326 316 311 302 295 288 283 284 282 291 293 290 292 295 296 297 300
271 271 275 272 279 286 291 293 301 315 331 227 202 200 198 191 190 195 192 192 195 199 196 198 210 242 306 326 322 318 311 301 294 293 279 273 285 287 289 293 300 301 297 294
267 268 267 262 263 267 272 279 279 303 304 284 221 219 210 203 198 195 194 197 197 200 194 198 218 248 290 315 317 314 313 301 291 280 270 271 276 283 283 298 296 288 272 258
258 250 247 254 267 266 259 266 271 280 281 284 235 222 217 212 206 203 200 195 194 194 198 214 227 251 284 307 312 311 318 308 294 280 274 263 257 268 273 294 282 240 187 160
269 238 234 230 241 247 246 255 256 260 262 252 241 226 220 215 212 209 201 200 198 199 207 215 231 250 278 301 309 313 315 308 297 284 268 259 249 253 263 282 207 166 151 136
265 246 228 224 228 244 233 245 231 241 248 262 231 214 216 215 216 213 206 206 199 207 210 221 231 255 281 301 311 313 311 304 298 292 256 240 242 246 251 227 182 164 158 149
258 224 209 206 215 229 229 221 233 236 253 266 245 219 213 216 217 218 208 204 202 207 216 230 243 265 289 304 315 316 317 308 301 296 243 225 232 233 241 198 178 164 159 154
198 187 182 183 193 202 228 244 235 230 242 251 247 216 217 223 215 203 204 209 210 218 223 232 249 267 290 306 316 323 316 309 303 273 249 241 232 233 234 194 181 171 168 165
156 163 171 184 201 229 233 226 227 230 233 230 235 222 210 200 200 194 198 197 209 220 228 235 252 273 289 308 318 316 304 278 268 264 250 248 236 210 221 187 182 164 161 154
162 162 197 209 191 94 169 148 145 149 163 189 199 199 195 189 191 196 195 196 228 234 230 228 246 260 282 304 311 309 293 266 235 245 243 229 211 211 187 182 175 173 162 158
170 125 166 154 121 114 110 127 94 88 100 98 94 116 130 158 168 194 210 217 221 220 217 224 235 246 279 305 306 302 280 244 223 225 216 209 198 189 198 188 182 177 166 158
122 143 126 120 125 95 106 131 173 157 152 144 139 147 161 178 179 180 191 208 211 212 217 228 227 221 207 192 111 82 65 193 159 139 157 187 192 206 190 179 184 175 169 160
86 99 111 121 125 151 174 182 167 142 127 123 129 144 161 184 199 195 201 212 219 216 217 217 210 189 162 142 120 93 81 79 84 96 97 102 138 155 165 173 174 166 162 169
Wind_Speed_850mb
29 22 17 23 21 29 25 22 18 23 20 30 16 22 27 26 26 28 27 26 25 24 24 26 32 39 43 39 41 34 21 25 24 17 14 28 37 34 34 32 38 40 44 46
12 7 21 26 23 30 27 14 8 10 16 14 7 14 25 26 30 27 27 26 25 24 21 20 21 21 22 27 38 48 36 32 29 30 30 30 25 27 28 32 43 46 42 45
14 2 9 9 31 33 25 23 23 17 22 14 14 23 35 35 34 34 32 30 28 23 19 20 20 19 19 21 24 27 29 35 35 31 31 30 33 34 38 31 27 32 41 45
8 6 32 2 9 31 39 30 27 11 16 21 19 26 31 44 45 38 37 34 31 30 28 23 19 19 18 16 14 13 12 14 18 19 21 23 24 25 26 33 37 44 43 46
13 15 11 9 7 11 23 25 31 27 11 10 9 18 16 36 41 40 37 33 33 36 32 26 20 20 18 14 11 9 8 9 11 10 10 12 13 14 15 20 28 31 33 41
9 27 31 14 8 7 4 20 23 34 16 19 29 18 19 56 48 37 32 36 38 38 31 26 28 21 13 10 5 4 8 11 7 3 8 14 17 19 23 27 25 29 33 33
23 24 32 10 16 15 9 9 30 28 31 35 22 15 25 57 52 46 41 37 40 39 31 26 21 15 8 5 7 16 13 8 6 3 6 12 13 17 21 25 27 28 29 29
26 32 31 7 10 41 11 19 20 18 22 47 38 19 22 54 60 56 51 44 42 40 32 24 17 9 8 5 11 15 21 19 18 17 14 13 15 19 25 25 25 29 29 30
10 19 9 10 4 8 9 15 21 30 19 27 35 28 29 45 58 59 54 47 46 40 33 25 14 11 13 13 18 21 22 24 25 25 22 23 26 30 33 28 25 21 23 26
16 4 11 9 2 7 13 23 34 32 30 28 34 34 38 46 57 57 55 51 48 43 32 22 15 12 15 17 21 24 24 25 27 25 26 29 35 40 37 27 21 25 24 28
15 7 4 8 30 27 5 25 26 29 30 29 36 38 44 52 57 58 57 54 51 39 33 24 14 12 13 14 17 19 21 21 21 24 29 36 36 30 24 26 26 24 28 31
6 25 13 11 27 18 34 36 34 30 22 20 35 43 46 54 59 60 61 57 47 40 32 19 9 9 10 10 11 14 18 22 26 31 33 30 28 29 20 23 29 29 34 39
23 16 28 32 30 9 31 36 38 34 26 20 30 44 57 60 61 62 57 48 47 40 27 16 11 10 7 7 10 14 21 27 31 32 30 29 27 26 26 30 34 38 37 35
26 29 34 29 25 43 47 48 38 30 17 20 34 47 60 62 63 58 54 52 45 36 27 19 14 8 4 6 11 16 21 26 30 32 32 28 19 26 26 27 31 35 32 39
52 46 40 48 63 61 56 54 39 31 17 14 29 47 64 62 60 59 57 51 45 39 31 21 12 6 4 9 13 16 20 23 25 26 21 17 20 24 26 27 29 34 37 31
43 42 42 40 45 52 51 40 28 28 21 10 27 43 63 64 60 67 62 56 52 45 32 20 11 4 5 11 14 16 20 22 22 19 18 20 18 19 22 25 31 25 15 11
48 54 42 37 38 42 38 33 27 24 21 13 26 37 58 66 70 71 65 58 48 34 25 17 12 7 8 14 18 21 23 24 26 29 24 22 18 20 21 27 18 13 9 6
52 64 56 42 26 26 32 27 23 22 18 11 20 36 45 67 73 69 67 59 50 40 29 22 16 12 12 18 24 29 32 32 30 29 29 29 23 20 22 20 12 7 5 6
32 48 52 40 35 28 30 29 26 19 15 11 15 32 46 58 66 71 67 60 53 42 32 23 18 14 15 21 28 31 34 35 35 36 34 29 24 22 21 16 11 16 15 17
33 34 41 41 39 30 33 30 28 24 16 11 16 23 36 52 66 66 66 66 52 39 29 24 19 17 17 23 27 32 36 39 40 39 35 28 23 24 24 17 27 25 23 28
32 33 38 40 36 31 33 28 28 27 19 17 12 20 28 38 48 51 61 57 44 35 30 23 20 16 18 23 30 37 41 37 34 28 26 26 26 27 22 26 37 29 25 27
16 27 35 35 33 28 22 22 25 24 23 22 19 22 28 31 34 46 57 50 37 32 27 26 21 17 19 26 33 37 33 23 16 19 22 22 25 27 23 35 42 26 27 30
20 27 29 28 21 15 12 20 23 25 27 29 27 28 27 32 42 60 54 44 32 28 23 25 19 18 21 27 32 31 25 19 19 19 24 19 21 22 24 43 43 36 32 37
26 20 17 15 11 3 8 23 20 15 14 17 22 32 31 38 48 47 42 29 15 21 25 22 19 19 19 22 26 26 24 21 15 12 16 13 17 22 26 43 47 45 48 38
17 16 10 9 12 17 21 16 24 28 29 30 25 26 27 28 26 25 24 25 27 28 31 28 24 18 13 13 14 18 16 14 15 13 16 18 16 25 29 52 54 53 47 44
31 35 29 27 22 26 21 24 23 28 26 28 24 11 10 18 20 15 14 17 24 28 30 28 25 15 8 3 7 11 5 7 12 12 13 16 14 21 43 52 52 55 50 49
36 32 30 30 27 24 23 23 23 23 25 24 22 20 14 11 12 16 17 20 23 26 29 28 27 23 18 22 27 30 35 36 32 26 28 28 24 28 30 39 44 37 47 44
Wind_Direction_850mb
243 252 217 246 197 183 209 205 211 241 218 252 203 185 188 163 146 149 155 166 168 172 177 187 199 213 218 221 215 202 201 204 201 210 235 246 249 246 246 253 258 256 253 250
266 321 234 242 238 200 210 197 221 198 230 238 160 157 163 166 156 155 163 168 169 169 173 184 198 200 201 207 209 215 225 221 229 247 257 259 250 239 248 270 261 251 251 253
248 335 156 241 229 204 195 197 193 186 217 163 182 193 178 171 174 171 168 165 166 160 151 152 152 158 165 172 184 202 221 227 238 255 251 260 263 265 259 255 257 253 253 252
206 191 235 126 301 223 205 195 195 236 221 209 218 195 185 183 181 176 172 170 162 153 146 147 154 161 161 159 167 187 209 227 237 244 253 259 262 269 260 260 259 268 267 257
221 228 280 234 143 174 198 220 206 219 213 207 165 154 198 192 188 182 180 175 165 161 160 142 142 148 147 141 142 153 183 220 233 246 260 273 280 272 274 266 276 266 260 263
219 229 234 206 124 25 347 244 205 211 202 170 161 176 201 194 190 184 175 174 174 172 169 151 143 136 133 129 126 207 202 206 197 270 294 292 284 285 281 272 267 260 269 275
224 243 240 253 121 89 198 248 318 217 204 173 193 207 197 189 185 185 183 183 181 180 171 159 154 148 151 157 135 170 190 208 217 280 303 311 293 300 297 284 273 270 271 271
211 219 236 143 142 187 213 313 320 299 233 201 197 209 164 183 183 183 187 183 183 181 173 167 170 181 227 243 211 215 211 220 239 252 265 285 292 299 311 303 284 271 270 271
283 216 0 320 133 112 4 328 329 308 298 235 192 190 170 176 181 185 186 183 183 179 174 179 191 232 253 259 249 247 245 246 253 249 261 274 285 295 299 295 292 283 284 290
312 79 54 69 56 22 347 323 308 307 286 237 206 189 175 175 179 181 183 184 179 174 178 186 213 244 261 256 252 255 257 254 253 256 269 280 289 293 284 274 277 272 274 274
289 4 168 355 23 13 332 344 330 297 276 251 209 201 181 178 179 178 176 176 177 176 178 192 214 255 272 266 254 252 251 251 252 263 278 289 295 303 286 274 266 274 276 279
264 338 313 320 349 360 19 350 347 323 287 244 213 207 186 177 173 171 168 171 175 181 185 192 231 264 266 258 247 242 245 252 261 272 282 288 292 297 295 274 276 273 275 281
252 276 295 292 318 299 337 335 335 333 297 243 204 200 183 172 169 167 168 176 183 186 188 204 218 229 238 262 268 260 259 266 272 275 280 286 288 291 291 282 277 282 289 288
255 269 277 276 287 300 315 326 325 329 310 217 203 191 179 172 165 170 180 186 184 187 196 205 210 218 255 290 294 289 283 280 278 278 280 284 282 286 290 291 291 293 292 292
269 253 249 280 287 291 298 306 323 342 343 204 206 194 183 178 176 185 190 187 187 193 198 200 207 233 315 326 316 311 302 295 288 283 284 282 291 293 290 292 295 296 297 300
271 271 275 272 279 286 291 293 301 315 331 227 202 200 198 191 190 195 192 192 195 199 196 198 210 242 306 326 322 318 311 301 294 293 279 273 285 287 289 293 300 301 297 294
267 268 267 262 263 267 272 279 279 303 304 284 221 219 210 203 198 195 194 197 197 200 194 198 218 248 290 315 317 314 313 301 291 280 270 271 276 283 283 298 296 288 272 258
258 250 247 254 267 266 259 266 271 280 281 284 235 222 217 212 206 203 200 195 194 194 198 214 227 251 284 307 312 311 318 308 294 280 274 263 257 268 273 294 282 240 187 160
269 238 234 230 241 247 246 255 256 260 262 252 241 226 220 215 212 209 201 200 198 199 207 215 231 250 278 301 309 313 315 308 297 284 268 259 249 253 263 282 207 166 151 136
265 246 228 224 228 244 233 245 231 241 248 262 231 214 216 215 216 213 206 206 199 207 210 221 231 255 281 301 311 313 311 304 298 292 256 240 242 246 251 227 182 164 158 149
258 224 209 206 215 229 229 221 233 236 253 266 245 219 213 216 217 218 208 204 202 207 216 230 243 265 289 304 315 316 317 308 301 296 243 225 232 233 241 198 178 164 159 154
198 187 182 183 193 202 228 244 235 230 242 251 247 216 217 223 215 203 204 209 210 218 223 232 249 267 290 306 316 323 316 309 303 273 249 241 232 233 234 194 181 171 168 165
156 163 171 184 201 229 233 226 227 230 233 230 235 222 210 200 200 194 198 197 209 220 228 235 252 273 289 308 318 316 304 278 268 264 250 248 236 210 221 187 182 164 161 154
162 162 197 209 191 94 169 148 145 149 163 189 199 199 195 189 191 196 195 196 228 234 230 228 246 260 282 304 311 309 293 266 235 245 243 229 211 211 187 182 175 173 162 158
170 125 166 154 121 114 110 127 94 88 100 98 94 116 130 158 168 194 210 217 221 220 217 224 235 246 279 305 306 302 280 244 223 225 216 209 198 189 198 188 182 177 166 158
122 143 126 120 125 95 106 131 173 157 152 144 139 147 161 178 179 180 191 208 211 212 217 228 227 221 207 192 111 82 65 193 159 139 157 187 192 206 190 179 184 175 169 160
86 99 111 121 125 151 174 182 167 142 127 123 129 144 161 184 199 195 201 212 219 216 217 217 210 189 162 142 120 93 81 79 84 96 97 102 138 155 165 173 174 166 162 169